FW2367 Weather Reports


time (UTC)temp
F
wind
direction
speed
knots
gust
knots
rain 1hr
in
rain 24hr
in
rain mn
in
humidity
%
barometer
mb
20260507075414 54 180 0.0 0.0 0.01 0.06 0.01 85 1009.7
20260507074414 54 180 0.0 0.0 0.00 0.05 0.00 84 1009.8
20260507073414 54 147 0.0 0.0 0.00 0.05 0.00 84 1009.6
20260507071514 55 180 0.0 0.0 0.00 0.05 0.00 85 1009.2
20260507070613 55 180 0.0 0.0 0.00 0.05 0.00 87 1009.2
20260507064713 56 180 0.0 0.0 0.00 0.05 0.00 88 1009.2
20260507063812 56 180 0.0 0.0 0.00 0.05 0.00 88 1009.3
20260507062816 56 180 0.0 0.0 0.00 0.05 0.00 88 1009.0
20260507061914 57 180 0.0 0.0 0.00 0.05 0.00 90 1008.9
20260507061012 57 180 0.0 0.0 0.00 0.05 0.00 90 1008.9
20260507055014 57 180 0.0 1.7 0.00 0.05 0.00 91 1009.3
20260507054015 58 180 0.0 0.0 0.00 0.05 0.00 92 1009.5
20260507053112 58 92 0.0 0.0 0.00 0.05 0.00 92 1009.4
20260507051116 59 180 0.0 0.9 0.00 0.05 0.00 94 1009.1
20260507050113 59 180 0.0 0.0 0.00 0.05 0.00 94 1009.2
20260507044213 59 180 2.6 6.1 0.00 0.05 0.00 95 1009.1
20260507043214 59 180 0.0 0.9 0.00 0.05 0.00 95 1009.0
20260507042312 59 180 0.0 0.0 0.00 0.05 0.00 95 1008.9
20260507042213 59 180 0.0 0.9 0.00 0.05 0.00 95 1008.9
20260507042112 59 180 0.0 3.5 0.00 0.05 0.00 95 1009.1
20260507041211 59 180 0.0 2.6 0.00 0.05 0.00 93 1009.2
20260507040216 59 180 0.9 3.5 0.00 0.05 0.00 94 1009.4
20260507035219 59 180 0.0 0.9 0.00 0.05 0.05 94 1009.3
20260507033219 60 180 1.7 6.1 0.00 0.05 0.05 93 1009.0
20260507032222 59 180 1.7 6.1 0.00 0.05 0.05 93 1008.9
20260507031220 59 180 2.6 7.8 0.00 0.05 0.05 93 1008.7
20260507030222 59 180 3.5 9.6 0.00 0.05 0.05 92 1008.7
20260507025220 59 180 2.6 5.2 0.00 0.05 0.05 92 1008.7
20260507024221 59 180 3.5 11.3 0.00 0.05 0.05 93 1008.9
20260507022320 59 180 2.6 9.6 0.00 0.05 0.05 93 1008.8
20260507021419 59 180 0.0 3.5 0.00 0.05 0.05 94 1008.7
20260507015519 59 180 0.9 6.1 0.00 0.05 0.05 94 1008.8
20260507014518 59 180 2.6 9.6 0.00 0.05 0.05 94 1008.9
20260507013522 59 172 0.0 3.5 0.00 0.05 0.05 94 1009.0
20260507012522 58 180 2.6 7.0 0.00 0.05 0.05 94 1009.1
20260507011520 58 180 0.0 2.6 0.00 0.05 0.05 93 1009.3
20260507010521 58 180 3.5 8.7 0.00 0.05 0.05 93 1009.3
20260507005619 58 180 1.7 7.0 0.00 0.05 0.05 94 1009.3
20260507004620 58 180 4.3 9.6 0.01 0.05 0.05 93 1009.5
20260507002621 58 180 2.6 11.3 0.02 0.05 0.05 93 1009.2
20260507001620 58 180 4.3 9.6 0.02 0.05 0.05 92 1009.1
20260507000619 58 180 4.3 9.6 0.02 0.05 0.05 93 1008.9
20260506235620 58 180 2.6 9.6 0.02 0.05 0.05 93 1009.0
20260506234620 58 180 4.3 7.0 0.01 0.04 0.04 93 1009.2
20260506233621 58 180 1.7 6.1 0.01 0.04 0.04 92 1008.9
20260506232621 58 180 0.0 5.2 0.01 0.03 0.03 92 1008.8
20260506230719 59 180 0.9 4.3 0.01 0.03 0.03 92 1009.0
20260506225721 59 180 1.7 7.0 0.01 0.03 0.03 92 1008.9
20260506223818 59 252 0.9 7.8 0.02 0.03 0.03 91 1009.2
20260506222821 59 239 4.3 11.3 0.01 0.02 0.02 91 1009.5
20260506221918 60 277 7.0 12.2 0.01 0.02 0.02 90 1009.3
20260506220922 60 248 1.7 7.8 0.01 0.02 0.02 90 1009.5
20260506220019 60 262 4.3 9.6 0.01 0.02 0.02 89 1009.6
20260506215021 60 254 0.0 2.6 0.01 0.02 0.02 88 1009.7
20260506214020 61 249 4.3 8.7 0.01 0.02 0.01 87 1009.8
20260506213019 61 238 6.1 10.4 0.00 0.01 0.01 85 1009.8
20260506210120 61 242 3.5 9.6 0.00 0.01 0.01 83 1010.0
20260506205219 62 234 4.3 11.3 0.00 0.01 0.01 82 1009.8
20260506204220 62 239 0.0 6.1 0.01 0.01 0.01 79 1010.1
20260506203319 63 227 2.6 7.0 0.01 0.01 0.01 78 1010.1
20260506202320 63 244 6.1 10.4 0.01 0.01 0.01 77 1010.0
20260506200319 63 260 5.2 9.6 0.01 0.01 0.01 76 1009.8
20260506195320 64 242 6.1 10.4 0.01 0.01 0.01 73 1009.9
20260506194320 64 242 2.6 8.7 0.00 0.00 0.00 72 1010.3
20260506193336 65 241 4.3 12.2 0.00 0.00 0.00 70 1010.3
20260506192320 66 258 6.1 12.2 0.00 0.00 0.00 67 1010.2
20260506191321 67 243 4.3 14.8 0.00 0.00 0.00 64 1009.9
20260506190319 67 232 1.7 7.0 0.00 0.00 0.00 63 1009.9
20260506185418 68 231 1.7 4.3 0.00 0.00 0.00 63 1010.0
20260506184421 68 240 2.6 8.7 0.00 0.00 0.00 61 1009.9
20260506183518 68 240 6.1 10.4 0.00 0.00 0.00 59 1010.2
20260506182519 69 243 6.1 12.2 0.00 0.00 0.00 59 1010.2
20260506181619 69 247 6.1 11.3 0.00 0.00 0.00 59 1010.2
20260506181519 69 250 4.3 10.4 0.00 0.00 0.00 60 1010.1
20260506174618 69 224 2.6 11.3 0.00 0.00 0.00 61 1010.6
20260506173620 69 244 3.5 16.5 0.00 0.00 0.00 60 1010.7
20260506172618 68 229 3.5 8.7 0.00 0.00 0.00 61 1010.8
20260506170619 69 232 3.5 12.2 0.00 0.00 0.00 60 1010.9
20260506165718 69 220 0.9 7.0 0.00 0.00 0.00 59 1011.2
20260506164720 69 241 1.7 7.0 0.00 0.00 0.00 60 1011.0
20260506163818 69 228 4.3 10.4 0.00 0.00 0.00 60 1010.9
20260506162821 69 236 5.2 10.4 0.00 0.00 0.00 60 1011.1
20260506161820 69 242 1.7 9.6 0.00 0.00 0.00 60 1011.5
20260506155919 69 253 4.3 10.4 0.00 0.00 0.00 59 1011.8
20260506153918 70 237 1.7 9.6 0.00 0.00 0.00 58 1011.9
20260506152919 70 251 0.9 6.1 0.00 0.00 0.00 59 1012.0
20260506151920 70 246 3.5 8.7 0.00 0.00 0.00 59 1012.1
20260506150921 69 236 0.9 7.0 0.00 0.00 0.00 60 1012.4
20260506150018 69 236 1.7 6.1 0.00 0.00 0.00 60 1012.4
20260506145021 69 241 3.5 8.7 0.00 0.00 0.00 60 1012.1
20260506144119 69 253 0.9 5.2 0.00 0.00 0.00 62 1012.3
20260506144019 69 240 0.0 3.5 0.00 0.00 0.00 61 1012.3
20260506143019 68 243 0.0 1.7 0.00 0.00 0.00 63 1012.1
20260506142920 68 263 1.7 9.6 0.00 0.00 0.00 62 1012.1
20260506142019 68 230 0.9 7.0 0.00 0.00 0.00 64 1012.1
20260506141020 67 225 0.0 7.8 0.00 0.00 0.00 66 1012.4
20260506135020 65 250 0.9 8.7 0.00 0.00 0.00 69 1012.4
20260506134019 65 252 3.5 7.8 0.00 0.00 0.00 71 1012.9
20260506133118 64 235 0.9 7.0 0.00 0.00 0.00 72 1013.0
20260506133019 64 254 0.9 7.0 0.00 0.00 0.00 72 1012.9
20260506132020 64 248 0.9 9.6 0.00 0.00 0.00 73 1012.9
20260506131117 64 241 4.3 9.6 0.00 0.00 0.00 73 1012.8
20260506130120 63 257 1.7 7.0 0.00 0.00 0.00 75 1012.9
20260506125118 63 225 1.7 7.8 0.00 0.00 0.00 76 1012.9
20260506124119 62 222 0.9 7.8 0.00 0.00 0.00 77 1013.3
20260506123119 62 260 2.6 7.8 0.00 0.00 0.00 78 1013.1
20260506121219 61 241 0.9 6.1 0.00 0.00 0.00 80 1013.0
20260506120220 60 250 0.0 3.5 0.00 0.00 0.00 80 1013.5
20260506114319 60 239 1.7 9.6 0.00 0.00 0.00 80 1013.7
20260506113319 60 243 2.6 9.6 0.00 0.00 0.00 80 1013.6
20260506112321 60 231 4.3 8.7 0.00 0.00 0.00 80 1013.5
20260506111320 60 246 1.7 8.7 0.00 0.00 0.00 81 1013.4
20260506110321 60 219 0.0 6.1 0.00 0.00 0.00 81 1013.4
20260506105320 60 240 1.7 8.7 0.00 0.00 0.00 80 1013.3
20260506103319 60 230 1.7 7.0 0.00 0.00 0.00 80 1013.6
20260506102320 60 242 3.5 7.8 0.00 0.00 0.00 80 1013.5
20260506101419 60 246 0.9 7.0 0.00 0.00 0.00 80 1013.5
20260506094518 59 248 0.0 7.0 0.00 0.00 0.00 80 1013.2
20260506093518 60 247 2.6 7.8 0.00 0.00 0.00 79 1013.3
20260506092518 60 252 1.7 9.6 0.00 0.00 0.00 78 1013.1
20260506091519 60 225 2.6 12.2 0.00 0.00 0.00 78 1013.1
20260506091419 60 226 0.9 7.8 0.00 0.00 0.00 78 1013.1
20260506090419 60 249 1.7 7.8 0.00 0.00 0.00 78 1013.3
20260506085420 60 249 1.7 7.8 0.00 0.00 0.00 78 1013.4
20260506084418 60 250 3.5 9.6 0.00 0.00 0.00 77 1013.3
20260506083419 60 250 5.2 10.4 0.00 0.00 0.00 76 1013.4
20260506082517 60 235 2.6 9.6 0.00 0.00 0.00 77 1013.2
20260506080518 60 228 4.3 10.4 0.00 0.00 0.00 76 1013.2